Time,TemperatureF,DewpointF,PressureIn,WindDirection,WindDirectionDegrees,WindSpeedMPH,WindSpeedGustMPH,Humidity,HourlyPrecipIn,Conditions,Clouds,dailyrainin,SoftwareType,DateUTC
2013-11-26 00:12:00,30.0,-99.9,-100.00,East,92,3.0,-999.0,-999,0.00,,,0.00,,2013-11-26 07:12:00,
2013-11-26 00:22:00,30.0,-99.9,-100.00,East,92,3.0,-999.0,-999,0.00,,,0.00,,2013-11-26 07:22:00,
2013-11-26 00:30:00,28.0,-99.9,-100.00,East,92,4.0,-999.0,-999,0.00,,,0.00,,2013-11-26 07:30:00,
2013-11-26 01:11:00,28.0,-99.9,-100.00,East,92,4.0,-999.0,-999,0.00,,,0.00,,2013-11-26 08:11:00,
2013-11-26 01:22:00,28.0,-99.9,-100.00,East,92,4.0,-999.0,-999,0.00,,,0.00,,2013-11-26 08:22:00,
2013-11-26 01:30:00,28.0,-99.9,-100.00,East,92,3.0,-999.0,-999,0.00,,,0.00,,2013-11-26 08:30:00,
2013-11-26 02:11:00,28.0,-99.9,-100.00,East,92,3.0,-999.0,-999,0.00,,,0.00,,2013-11-26 09:11:00,
2013-11-26 02:22:00,28.0,-99.9,-100.00,East,92,3.0,-999.0,-999,0.00,,,0.00,,2013-11-26 09:22:00,
2013-11-26 02:30:00,26.0,-99.9,-100.00,East,92,2.0,-999.0,-999,0.00,,,0.00,,2013-11-26 09:30:00,
2013-11-26 03:12:00,26.0,-99.9,-100.00,East,92,2.0,-999.0,-999,0.00,,,0.00,,2013-11-26 10:12:00,
2013-11-26 03:23:00,26.0,-99.9,-100.00,East,92,2.0,-999.0,-999,0.00,,,0.00,,2013-11-26 10:23:00,
2013-11-26 03:30:00,26.0,-99.9,-100.00,East,92,3.0,-999.0,-999,0.00,,,0.00,,2013-11-26 10:30:00,
2013-11-26 04:12:00,26.0,-99.9,-100.00,East,92,3.0,-999.0,-999,0.00,,,0.00,,2013-11-26 11:12:00,
2013-11-26 04:23:00,26.0,-99.9,-100.00,East,92,3.0,-999.0,-999,0.00,,,0.00,,2013-11-26 11:23:00,
2013-11-26 04:30:00,25.0,-99.9,-100.00,East,92,2.0,-999.0,-999,0.00,,,0.00,,2013-11-26 11:30:00,
2013-11-26 05:12:00,25.0,-99.9,-100.00,East,92,2.0,-999.0,-999,0.00,,,0.00,,2013-11-26 12:12:00,
2013-11-26 05:22:00,25.0,-99.9,-100.00,East,92,2.0,-999.0,-999,0.00,,,0.00,,2013-11-26 12:22:00,
2013-11-26 05:30:00,24.0,-99.9,-100.00,East,92,0.0,-999.0,-999,0.00,,,0.00,,2013-11-26 12:30:00,
2013-11-26 06:11:00,24.0,-99.9,-100.00,East,92,0.0,-999.0,-999,0.00,,,0.00,,2013-11-26 13:11:00,
2013-11-26 06:22:00,24.0,-99.9,-100.00,East,92,0.0,-999.0,-999,0.00,,,0.00,,2013-11-26 13:22:00,
2013-11-26 06:30:00,29.0,-99.9,-100.00,East,92,6.0,-999.0,-999,0.00,,,0.00,,2013-11-26 13:30:00,
2013-11-26 07:12:00,29.0,-99.9,-100.00,East,92,6.0,-999.0,-999,0.00,,,0.00,,2013-11-26 14:12:00,
2013-11-26 07:22:00,29.0,-99.9,-100.00,East,92,6.0,-999.0,-999,0.00,,,0.00,,2013-11-26 14:22:00,
2013-11-26 07:30:00,28.0,-99.9,-100.00,East,92,4.0,-999.0,-999,0.00,,,0.00,,2013-11-26 14:30:00,
2013-11-26 08:12:00,28.0,-99.9,-100.00,East,92,4.0,-999.0,-999,0.00,,,0.00,,2013-11-26 15:12:00,
2013-11-26 08:22:00,28.0,-99.9,-100.00,East,92,4.0,-999.0,-999,0.00,,,0.00,,2013-11-26 15:22:00,
2013-11-26 08:30:00,30.0,-99.9,-100.00,East,92,3.0,-999.0,-999,0.00,,,0.00,,2013-11-26 15:30:00,
2013-11-26 09:13:00,30.0,-99.9,-100.00,East,92,3.0,-999.0,-999,0.00,,,0.00,,2013-11-26 16:13:00,
2013-11-26 09:23:00,30.0,-99.9,-100.00,East,92,3.0,-999.0,-999,0.00,,,0.00,,2013-11-26 16:23:00,
2013-11-26 09:30:00,33.0,-99.9,-100.00,East,92,2.0,-999.0,-999,0.00,,,0.00,,2013-11-26 16:30:00,
2013-11-26 10:13:00,33.0,-99.9,-100.00,East,92,2.0,-999.0,-999,0.00,,,0.00,,2013-11-26 17:13:00,
2013-11-26 10:22:00,33.0,-99.9,-100.00,East,92,2.0,-999.0,-999,0.00,,,0.00,,2013-11-26 17:22:00,
2013-11-26 10:30:00,36.0,-99.9,-100.00,East,92,6.0,-999.0,-999,0.00,,,0.00,,2013-11-26 17:30:00,
2013-11-26 11:12:00,36.0,-99.9,-100.00,East,92,6.0,-999.0,-999,0.00,,,0.00,,2013-11-26 18:12:00,
2013-11-26 11:22:00,36.0,-99.9,-100.00,East,92,6.0,-999.0,-999,0.00,,,0.00,,2013-11-26 18:22:00,
2013-11-26 11:30:00,37.0,-99.9,-100.00,East,92,4.0,-999.0,-999,0.00,,,0.00,,2013-11-26 18:30:00,
2013-11-26 12:12:00,37.0,-99.9,-100.00,East,92,4.0,-999.0,-999,0.00,,,0.00,,2013-11-26 19:12:00,
2013-11-26 12:22:00,37.0,-99.9,-100.00,East,92,4.0,-999.0,-999,0.00,,,0.00,,2013-11-26 19:22:00,
2013-11-26 12:30:00,39.0,-99.9,-100.00,East,92,2.0,-999.0,-999,0.00,,,0.00,,2013-11-26 19:30:00,
2013-11-26 13:12:00,39.0,-99.9,-100.00,East,92,2.0,-999.0,-999,0.00,,,0.00,,2013-11-26 20:12:00,
2013-11-26 13:22:00,39.0,-99.9,-100.00,East,92,2.0,-999.0,-999,0.00,,,0.00,,2013-11-26 20:22:00,
2013-11-26 13:30:00,38.0,-99.9,-100.00,East,92,1.0,-999.0,-999,0.00,,,0.00,,2013-11-26 20:30:00,
2013-11-26 14:11:00,38.0,-99.9,-100.00,East,92,1.0,-999.0,-999,0.00,,,0.00,,2013-11-26 21:11:00,
2013-11-26 14:22:00,38.0,-99.9,-100.00,East,92,1.0,-999.0,-999,0.00,,,0.00,,2013-11-26 21:22:00,
2013-11-26 14:30:00,40.0,-99.9,-100.00,East,92,1.0,-999.0,-999,0.00,,,0.00,,2013-11-26 21:30:00,
2013-11-26 15:13:00,40.0,-99.9,-100.00,East,92,1.0,-999.0,-999,0.00,,,0.00,,2013-11-26 22:13:00,
2013-11-26 15:24:00,40.0,-99.9,-100.00,East,92,1.0,-999.0,-999,0.00,,,0.00,,2013-11-26 22:24:00,
2013-11-26 15:30:00,39.0,-99.9,-100.00,East,92,1.0,-999.0,-999,0.00,,,0.00,,2013-11-26 22:30:00,
2013-11-26 16:12:00,39.0,-99.9,-100.00,East,92,1.0,-999.0,-999,0.00,,,0.00,,2013-11-26 23:12:00,
2013-11-26 16:22:00,39.0,-99.9,-100.00,East,92,1.0,-999.0,-999,0.00,,,0.00,,2013-11-26 23:22:00,
2013-11-26 16:30:00,33.0,-99.9,-100.00,East,92,3.0,-999.0,-999,0.00,,,0.00,,2013-11-26 23:30:00,
2013-11-26 17:12:00,33.0,-99.9,-100.00,East,92,3.0,-999.0,-999,0.00,,,0.00,,2013-11-27 00:12:00,
2013-11-26 17:22:00,33.0,-99.9,-100.00,East,92,3.0,-999.0,-999,0.00,,,0.00,,2013-11-27 00:22:00,
2013-11-26 17:30:00,31.0,-99.9,-100.00,East,92,2.0,-999.0,-999,0.00,,,0.00,,2013-11-27 00:30:00,
2013-11-26 18:11:00,31.0,-99.9,-100.00,East,92,2.0,-999.0,-999,0.00,,,0.00,,2013-11-27 01:11:00,
2013-11-26 18:22:00,31.0,-99.9,-100.00,East,92,2.0,-999.0,-999,0.00,,,0.00,,2013-11-27 01:22:00,
2013-11-26 19:30:00,27.0,-99.9,-100.00,East,92,3.0,-999.0,-999,0.00,,,0.00,,2013-11-27 02:30:00,
2013-11-26 20:11:00,27.0,-99.9,-100.00,East,92,3.0,-999.0,-999,0.00,,,0.00,,2013-11-27 03:11:00,
2013-11-26 20:22:00,27.0,-99.9,-100.00,East,92,3.0,-999.0,-999,0.00,,,0.00,,2013-11-27 03:22:00,
2013-11-26 20:30:00,25.0,-99.9,-100.00,East,92,1.0,-999.0,-999,0.00,,,0.00,,2013-11-27 03:30:00,
2013-11-26 21:13:00,25.0,-99.9,-100.00,East,92,1.0,-999.0,-999,0.00,,,0.00,,2013-11-27 04:13:00,
2013-11-26 21:23:00,25.0,-99.9,-100.00,East,92,1.0,-999.0,-999,0.00,,,0.00,,2013-11-27 04:23:00,
2013-11-26 21:30:00,25.0,-99.9,-100.00,East,92,4.0,-999.0,-999,0.00,,,0.00,,2013-11-27 04:30:00,
2013-11-26 22:12:00,25.0,-99.9,-100.00,East,92,4.0,-999.0,-999,0.00,,,0.00,,2013-11-27 05:12:00,
2013-11-26 22:23:00,25.0,-99.9,-100.00,East,92,4.0,-999.0,-999,0.00,,,0.00,,2013-11-27 05:23:00,
2013-11-26 22:30:00,23.0,-99.9,-100.00,East,92,2.0,-999.0,-999,0.00,,,0.00,,2013-11-27 05:30:00,
2013-11-26 23:12:00,23.0,-99.9,-100.00,East,92,2.0,-999.0,-999,0.00,,,0.00,,2013-11-27 06:12:00,
2013-11-26 23:22:00,23.0,-99.9,-100.00,East,92,2.0,-999.0,-999,0.00,,,0.00,,2013-11-27 06:22:00,
2013-11-26 23:30:00,23.0,-99.9,-100.00,East,92,4.0,-999.0,-999,0.00,,,0.00,,2013-11-27 06:30:00,